DECAYED

CZ-6A DEB, 54911 (Decayed)

Orbit data source: Space-Track

CZ-6A DEB, 54911 was space debris in SSO originally from a launch on Fri, 11 Nov 2022 UTC launched from the Taiyaun Space Center, China (TSC). Debris objects in space refer to the collection of defunct objects orbiting the Earth. Examples of debris include non-operational satellites, rocket bodies, and fragments generated from explosions, collisions, or faulty payload assembly.

Not visible in the next 10 days
Identifier
54911, 2022-151QY
Orbit
Decayed
Country
Flag of CNCN / PRC
Related business
Manufacturer
SAST
Mission
Decayed spacecraft
Bus & Motor
Unknown
Mass
Unknown
Launch date (UTC)
2022-11-11 (4 years ago)
Launch vehicle
Unknown
Launch site
Taiyaun Space Center, China (TSC)
Object type
Payload
Rocket body
Debris
Shape & HBR
Unknown shape, 0.1 m
Radar Cross Section
Medium (>0.1 m² and <1 m²)

Expand to show TLE details & history
Last TLE update: 5 months ago

TLE from 5 months ago
0 CZ-6A DEB
1 54911U 22151QY  26078.19977118  .03294228  90653-2  14905-1 0  9992
2 54911  98.6149 168.9696 0015872 292.1968  67.7615 15.86018754 85655
Epoch: 2026-03-19T04:47Z
TLE epoch observation values (Epoch: 2026-03-19T04:47:40.229Z)
Latitude
-0.00001°
Longitude
-79.70063°
Altitude
312.592 km
Speed
7.723 km/s
True Right ascension
11h 15m 52s
True Declination
0° 00' 00"
Sunlit
Object was in full shadow at epoch
Visualization orbit readout
Latitude
Unknown
Longitude
Unknown
Altitude
Unknown
Speed
Unknown
Apparent Right ascension
Unknown
Apparent Declination
Unknown
Sunlit
N/A
Visualization observer readout
Local Sidereal Time
02:50:44
Azimuth
Unknown
Elevation
Unknown
Doppler factor
Unknown
Orbital elements
Apogee altitude
321.01 km
Perigee altitude
299.778 km
Semi-major axis
6,688.531 km
Eccentricity
0.00159
Inclination
98.6149°
RAAN
168.9696°
Arg. of periapsis
292.1968°
True anomaly
67.92998°
Mean anomaly
67.7615°
Eccentric anomaly
67.84573°
Mean motion
3.96778 °/min
Orbital period
90.73 mins
BSTAR
0.014905
Loading maneuver chart data...
Computing Atmospheric mass density...
Loading historical data...
Loading historical data...
Loading historical data...
Loading historical data...
Loading historical data...
Loading historical data...
Loading historical data...

Documentation

Showing up to 5 results
|